Regional Weather Roundup
Issued by NWS Newport/Morehead, NC

Current Version | Previous Version | Graphics & Text | Print | Product List | Glossary On
Versions: 1 2 3 4 5 6 7 8 9 10 11 12 13 14 15 16 17 18 19 20 21 22 23 24 25 26 27 28 29 30 31 32 33 34 35 36 37 38 39 40 41 42 43 44 45 46 47 48 49 50
000 ASUS42 KMHX 311922 RWRMHX WEATHER ROUNDUP FOR EASTERN NORTH CAROLINA NATIONAL WEATHER SERVICE NEWPORT/MOREHEAD CITY NC 200 PM EST SAT JAN 31 2015 NOTE: "FAIR" INDICATES FEW OR NO CLOUDS BELOW 12,000 FEET WITH NO SIGNIFICANT WEATHER AND/OR OBSTRUCTIONS TO VISIBILITY NCZ015>017-031-032-045>047-102-103-312000- NORTH COAST CITY SKY/WX TMP DP RH WIND PRES REMARKS EDENTON SUNNY 41 8 25 NW13 30.30F ELIZABETH CITY SUNNY 39 8 27 NW13G20 30.29F KITTY HAWK CLEAR 36 6 28 NW9 30.27S MANTEO SUNNY 36 9 32 NW12G18 30.29F $$ NCZ045>047-081-094-103-104-312000- CENTRAL COAST CITY SKY/WX TMP DP RH WIND PRES REMARKS FRISCO SUNNY 38 14 37 NW10G17 30.30F SWANQUARTER NOT AVBL $$ NCZ095-097-098-100-101-312000- SOUTHERN COAST CITY SKY/WX TMP DP RH WIND PRES REMARKS BEAUFORT SUNNY 43 9 24 N6 30.32F CEDAR ISLAND NOT AVBL JACKSONVILLE SUNNY 45 8 22 VRB6 30.33F PINEY ISLAND N/A N/A N/A N/A MISG 30.32F WILMINGTON SUNNY 47 10 22 N7 30.33F $$ NCZ011>013-027>030-043-044-078>080-089-090>093-098-312000- COASTAL PLAIN CITY SKY/WX TMP DP RH WIND PRES REMARKS AHOSKIE SUNNY 40 6 24 NW3 30.31F CLINTON SUNNY 46 9 22 NW9 30.34F ELIZABETHTOWN SUNNY 48 4 17 W3 30.33F GOLDSBORO SUNNY 27 16 63 CALM 30.30F GREENVILLE SUNNY 43 7 22 W6 30.32F HAVELOCK SUNNY 45 5 19 N12 30.33F KENANSVILLE SUNNY 44 6 20 CALM 30.34F KINSTON SUNNY 45 5 19 N5 30.33F NEW BERN SUNNY 46 6 19 N8 30.33F RICHLANDS SUNNY 45 9 23 SW7 30.33F ROCKY MOUNT SUNNY 44 6 21 W7 30.31F WASHINGTON SUNNY 42 7 23 NW9 30.32S WHITEVILLE SUNNY 47 4 16 N3 30.33F $$ AMZ130-135-150-152-154-156-158-170-250-252-270-ANZ085-086-088-633-658-670-312000- MARINE OBSERVATIONS STATION/POSITION TIME TEMP WIND PRES WAVE SWELL AIR SEA DIR/SP/G HT/PER HT/PER (UTC) (F) (DEG/KT/KT) (MB) (FT/S) (FT/S) CHESAPEAKE LIGHT 1900 33 310/ 19/ 20 1025.8 64 E VA BEACH 1900 32 48 310/ 23/ 29 1023.3 9/ 9 5/ 9 DUCK 1900 34 41 340/ 16/ 19 1024.2 2 E DUCK 1900 41 N/A 5/ 8 2/11 10 NE DUCK 1900 43 N/A 6/ 8 2/11 OREGON INLET 1900 34 39 300/ 12/ 16 1025.3 13E OREGON INLT 1900 45 N/A 8/ 7 2/11 HATTERAS CG 1900 35 40 330/ 13/ 15 1026.3 DIAMOND BUOY 1900 35 62 340/ 16/ 19 1025.9 6/ 6 3/ 9 17 S OCRACOKE NOT AVBL CAPE LOOKOUT 1900 40 310/ 6/ 7 1026.8 BEAUFORT LAB 1900 41 44 350/ 7/ 9 1025.8 27 SE WRIGHTSVLE NOT AVBL 5 SE WRIGHTSVLE 1900 42 52 170/ 2/ 2 1027.4 225 S CAPE HAT 1814 54 69 340/ 19/ 25 1024.6 12/ 9 8/ 9 41 SE CHARLESTON 1900 47 67 30/ 14/ 17 1027.6 5/ 6 3/10 $$

USA.gov is the U.S. government's official web portal to all federal, state and local government web resources and services.